| time (UTC) | temp C | wind direction | speed KPH | gust KPH | rain 1hr cm | rain 24hr cm | rain mn cm | humidity % | barometer mb |
| 20260508044559 | 11 | 290 | 0.0 | 0.0 | 0.00 | 3.05 | 0.00 | 97 | 1013.0 |
| 20260508043032 | 11 | 290 | 0.0 | 0.0 | 0.00 | 3.05 | 0.00 | 97 | 1013.0 |
| 20260508041551 | 11 | 288 | 0.0 | 0.0 | 0.00 | 3.05 | 0.00 | 97 | 1013.0 |
| 20260508040017 | 11 | 288 | 0.0 | 0.0 | 0.00 | 3.05 | 3.05 | 97 | 1012.8 |
| 20260508034536 | 11 | 316 | 0.0 | 0.0 | 0.00 | 3.05 | 3.05 | 97 | 1012.6 |
| 20260508033056 | 11 | 302 | 0.0 | 4.8 | 0.00 | 3.05 | 3.05 | 97 | 1012.2 |
| 20260508031517 | 11 | 37 | 0.0 | 0.0 | 0.00 | 3.05 | 3.05 | 97 | 1012.0 |
| 20260508030045 | 11 | 14 | 0.0 | 0.0 | 0.00 | 3.05 | 3.05 | 96 | 1011.8 |
| 20260508024519 | 11 | 12 | 0.0 | 0.0 | 0.00 | 3.05 | 3.05 | 96 | 1011.9 |
| 20260508023036 | 11 | 22 | 0.0 | 0.0 | 0.00 | 3.05 | 3.05 | 96 | 1011.7 |
| 20260508021506 | 11 | 331 | 0.0 | 3.2 | 0.00 | 3.05 | 3.05 | 96 | 1011.5 |
| 20260508020036 | 11 | 301 | 0.0 | 0.0 | 0.00 | 3.05 | 3.05 | 96 | 1011.5 |
| 20260508014620 | 11 | 300 | 0.0 | 1.6 | 0.05 | 3.05 | 3.05 | 96 | 1011.4 |
| 20260508014502 | 11 | 300 | 0.0 | 1.6 | 0.05 | 3.05 | 3.05 | 96 | 1011.2 |
| 20260508013031 | 11 | 328 | 0.0 | 0.0 | 0.36 | 3.05 | 3.05 | 96 | 1010.5 |
| 20260508011504 | 11 | 319 | 0.0 | 3.2 | 0.38 | 3.05 | 3.05 | 96 | 1010.9 |
| 20260508010041 | 11 | 41 | 0.0 | 4.8 | 0.38 | 3.05 | 3.05 | 96 | 1010.7 |
| 20260508004558 | 11 | 98 | 0.0 | 8.0 | 0.33 | 3.00 | 3.00 | 95 | 1010.7 |
| 20260508003011 | 12 | 52 | 1.6 | 4.8 | 0.03 | 2.69 | 2.69 | 93 | 1010.6 |
| 20260508001545 | 12 | 150 | 0.0 | 6.4 | 0.00 | 2.67 | 2.67 | 93 | 1009.3 |
| 20260508000013 | 12 | 281 | 0.0 | 1.6 | 0.00 | 2.67 | 2.67 | 94 | 1009.3 |
| 20260507234535 | 12 | 293 | 1.6 | 11.3 | 0.00 | 2.67 | 2.67 | 93 | 1009.3 |
| 20260507233002 | 12 | 32 | 3.2 | 11.3 | 0.00 | 2.67 | 2.67 | 93 | 1009.6 |
| 20260507231523 | 12 | 328 | 3.2 | 11.3 | 0.00 | 2.67 | 2.67 | 93 | 1009.3 |
| 20260507230049 | 12 | 159 | 4.8 | 14.5 | 0.00 | 2.67 | 2.67 | 93 | 1009.0 |
| 20260507224514 | 12 | 343 | 3.2 | 9.7 | 0.00 | 2.67 | 2.67 | 94 | 1008.9 |
| 20260507223038 | 12 | 354 | 0.0 | 6.4 | 0.00 | 2.67 | 2.67 | 95 | 1008.8 |
| 20260507221502 | 12 | 23 | 1.6 | 6.4 | 0.00 | 2.67 | 2.67 | 95 | 1008.7 |
| 20260507220021 | 11 | 289 | 3.2 | 22.5 | 0.00 | 2.67 | 2.67 | 95 | 1008.8 |
| 20260507214548 | 12 | 346 | 8.0 | 16.1 | 0.03 | 2.67 | 2.67 | 95 | 1008.5 |
| 20260507213007 | 12 | 38 | 8.0 | 19.3 | 0.08 | 2.67 | 2.67 | 96 | 1008.4 |
| 20260507211538 | 12 | 49 | 3.2 | 22.5 | 0.30 | 2.67 | 2.67 | 96 | 1008.1 |
| 20260507210100 | 13 | 328 | 9.7 | 19.3 | 0.48 | 2.67 | 2.67 | 96 | 1007.9 |
| 20260507204524 | 13 | 353 | 3.2 | 16.1 | 0.58 | 2.64 | 2.64 | 96 | 1007.8 |
| 20260507203039 | 13 | 24 | 4.8 | 14.5 | 0.51 | 2.57 | 2.59 | 96 | 1007.6 |
| 20260507201602 | 13 | 347 | 4.8 | 14.5 | 0.36 | 2.41 | 2.41 | 96 | 1007.3 |
| 20260507200009 | 14 | 328 | 8.0 | 16.1 | 0.10 | 2.16 | 2.16 | 95 | 1007.4 |
| 20260507194538 | 15 | 29 | 4.8 | 17.7 | 0.00 | 2.06 | 2.06 | 95 | 1007.6 |
| 20260507193005 | 15 | 345 | 8.0 | 19.3 | 0.00 | 2.06 | 2.06 | 95 | 1007.1 |
| 20260507191529 | 16 | 335 | 8.0 | 19.3 | 0.00 | 2.06 | 2.06 | 95 | 1007.2 |
| 20260507190042 | 16 | 345 | 3.2 | 17.7 | 0.03 | 2.06 | 2.06 | 95 | 1006.6 |
| 20260507184558 | 17 | 342 | 4.8 | 12.9 | 0.03 | 2.06 | 2.06 | 93 | 1007.2 |
| 20260507183012 | 18 | 1 | 8.0 | 20.9 | 0.03 | 2.06 | 2.06 | 90 | 1006.8 |
| 20260507181540 | 22 | 240 | 1.6 | 8.0 | 0.00 | 2.03 | 2.06 | 93 | 1006.5 |
| 20260507180100 | 21 | 275 | 3.2 | 8.0 | 0.00 | 2.03 | 2.03 | 94 | 1006.9 |
| 20260507174526 | 21 | 264 | 3.2 | 11.3 | 0.00 | 2.03 | 2.03 | 92 | 1006.6 |
| 20260507173046 | 21 | 289 | 3.2 | 9.7 | 0.00 | 2.03 | 2.03 | 94 | 1006.4 |
| 20260507171502 | 20 | 212 | 3.2 | 9.7 | 0.00 | 2.03 | 2.03 | 95 | 1006.6 |
| 20260507170026 | 20 | 196 | 0.0 | 9.7 | 0.00 | 2.03 | 2.03 | 95 | 1007.3 |
| 20260507164547 | 20 | 236 | 1.6 | 6.4 | 0.00 | 2.03 | 2.03 | 95 | 1008.0 |
| 20260507163008 | 20 | 295 | 3.2 | 8.0 | 0.03 | 2.03 | 2.03 | 95 | 1008.2 |
| 20260507161540 | 20 | 224 | 3.2 | 9.7 | 0.13 | 2.03 | 2.03 | 95 | 1008.3 |
| 20260507160027 | 20 | 229 | 1.6 | 9.7 | 0.20 | 2.03 | 2.03 | 94 | 1008.1 |
| 20260507154532 | 20 | 207 | 1.6 | 9.7 | 0.36 | 2.03 | 2.03 | 95 | 1008.0 |
| 20260507153103 | 19 | 266 | 3.2 | 8.0 | 0.43 | 2.01 | 2.01 | 96 | 1008.1 |
| 20260507151512 | 19 | 257 | 4.8 | 14.5 | 0.41 | 1.91 | 1.91 | 96 | 1008.4 |
| 20260507150048 | 19 | 204 | 3.2 | 14.5 | 0.41 | 1.83 | 1.83 | 96 | 1008.6 |
| 20260507144509 | 20 | 236 | 1.6 | 16.1 | 0.33 | 1.65 | 1.68 | 96 | 1008.8 |
| 20260507143034 | 20 | 215 | 4.8 | 16.1 | 0.23 | 1.55 | 1.57 | 96 | 1008.8 |
| 20260507141555 | 20 | 271 | 3.2 | 12.9 | 0.18 | 1.50 | 1.50 | 96 | 1008.8 |
| 20260507141512 | 20 | 326 | 3.2 | 12.9 | 0.18 | 1.50 | 1.50 | 96 | 1008.9 |
| 20260507140021 | 20 | 295 | 1.6 | 9.7 | 0.10 | 1.42 | 1.42 | 96 | 1008.9 |
| 20260507134548 | 20 | 213 | 1.6 | 9.7 | 0.00 | 1.32 | 1.32 | 96 | 1009.0 |
| 20260507133113 | 20 | 291 | 1.6 | 9.7 | 0.00 | 1.32 | 1.32 | 96 | 1008.7 |
| 20260507133002 | 20 | 268 | 3.2 | 9.7 | 0.00 | 1.32 | 1.32 | 96 | 1008.7 |
| 20260507131519 | 20 | 271 | 1.6 | 11.3 | 0.00 | 1.32 | 1.32 | 96 | 1008.7 |
| 20260507130049 | 20 | 199 | 1.6 | 12.9 | 0.00 | 1.32 | 1.32 | 96 | 1008.4 |
| 20260507124635 | 19 | 250 | 6.4 | 11.3 | 0.00 | 1.32 | 1.32 | 97 | 1008.7 |
| 20260507123018 | 19 | 212 | 1.6 | 12.9 | 0.00 | 1.32 | 1.32 | 97 | 1009.1 |
| 20260507121541 | 19 | 210 | 1.6 | 9.7 | 0.00 | 1.32 | 1.32 | 97 | 1009.3 |
| 20260507120059 | 19 | 214 | 1.6 | 6.4 | 0.00 | 1.32 | 1.32 | 97 | 1009.3 |
| 20260507114529 | 18 | 224 | 0.0 | 8.0 | 0.05 | 1.32 | 1.32 | 97 | 1009.7 |
| 20260507113047 | 18 | 246 | 0.0 | 4.8 | 0.08 | 1.32 | 1.32 | 97 | 1009.7 |
| 20260507111515 | 18 | 255 | 3.2 | 6.4 | 0.08 | 1.32 | 1.32 | 97 | 1009.8 |
| 20260507110037 | 18 | 186 | 1.6 | 8.0 | 0.10 | 1.32 | 1.32 | 97 | 1009.5 |
| 20260507104558 | 18 | 214 | 3.2 | 6.4 | 0.08 | 1.27 | 1.27 | 97 | 1009.3 |
| 20260507103023 | 18 | 224 | 3.2 | 8.0 | 0.05 | 1.24 | 1.24 | 97 | 1009.3 |
| 20260507101541 | 18 | 212 | 1.6 | 4.8 | 0.08 | 1.24 | 1.24 | 97 | 1009.6 |
| 20260507100009 | 18 | 212 | 0.0 | 6.4 | 0.05 | 1.22 | 1.22 | 97 | 1009.2 |
| 20260507094523 | 18 | 230 | 4.8 | 12.9 | 0.18 | 1.19 | 1.19 | 97 | 1009.1 |
| 20260507093057 | 18 | 214 | 4.8 | 9.7 | 0.30 | 1.19 | 1.19 | 97 | 1008.9 |
| 20260507091518 | 18 | 214 | 4.8 | 12.9 | 0.33 | 1.17 | 1.17 | 97 | 1009.0 |
| 20260507090044 | 18 | 167 | 6.4 | 22.5 | 0.36 | 1.17 | 1.17 | 98 | 1009.2 |
| 20260507084559 | 18 | 205 | 4.8 | 14.5 | 0.25 | 1.02 | 1.04 | 98 | 1009.8 |
| 20260507083027 | 18 | 207 | 1.6 | 8.0 | 0.15 | 0.89 | 0.89 | 98 | 1010.1 |
| 20260507081553 | 18 | 247 | 3.2 | 11.3 | 0.10 | 0.84 | 0.84 | 98 | 1009.8 |
| 20260507080027 | 18 | 223 | 0.0 | 0.0 | 0.08 | 0.81 | 0.81 | 98 | 1010.1 |
| 20260507074601 | 18 | 241 | 0.0 | 0.0 | 0.03 | 0.76 | 0.76 | 98 | 1010.1 |
| 20260507073021 | 18 | 151 | 0.0 | 4.8 | 0.00 | 0.71 | 0.71 | 97 | 1010.0 |
| 20260507071553 | 18 | 206 | 0.0 | 0.0 | 0.00 | 0.71 | 0.71 | 97 | 1010.3 |
| 20260507070015 | 18 | 167 | 0.0 | 0.0 | 0.00 | 0.71 | 0.71 | 97 | 1010.4 |
| 20260507064547 | 18 | 124 | 0.0 | 0.0 | 0.00 | 0.71 | 0.71 | 97 | 1010.4 |
| 20260507063011 | 18 | 139 | 0.0 | 1.6 | 0.03 | 0.71 | 0.71 | 97 | 1010.9 |
| 20260507061534 | 18 | 287 | 0.0 | 4.8 | 0.28 | 0.71 | 0.71 | 97 | 1011.4 |
| 20260507060048 | 18 | 158 | 0.0 | 0.0 | 0.53 | 0.71 | 0.71 | 96 | 1010.7 |
| 20260507054514 | 18 | 197 | 0.0 | 4.8 | 0.71 | 0.71 | 0.71 | 96 | 1010.9 |
| 20260507053025 | 18 | 191 | 0.0 | 4.8 | 0.71 | 0.71 | 0.71 | 95 | 1010.3 |
| 20260507051547 | 19 | 297 | 0.0 | 4.8 | 0.46 | 0.46 | 0.48 | 94 | 1012.4 |
| 20260507050007 | 20 | 315 | 4.8 | 11.3 | 0.18 | 0.18 | 0.20 | 91 | 1012.5 |